Date String (YYYY-MM-DD hh:mm:ss) UTC,Instrument flags,absolute air pressure of the measurement (hPa),sample flow rate (lpm),inlet stack bypass flow (lpm),air temperature of the measurement (°C),ambient temperature measured by the external sensor (°C),aerosol sample conditioner tube jacket temperature (°C),OPC LED temperature (°C),internal box temperature (°C),relative humidity of the measurement (%),span deviation,mass concentration of particles derived from Lorenz-Mie calculation of OPC scattering (μg/m³),mass concentration of particles derived from Lorenz-Mie calculation of OPC scattering (μg/m³),mass concentration of particles derived from Lorenz-Mie calculation of OPC scattering (μg/m³)
DateTimeUTC,F1_M11,P_M11,Q1_M11,Q2_M11,T1_M11,T2_M11,T3_M11,T4_M11,T5_M11,U1_M11,ZSPAN_M11,X0_M11,X2_M11,X1_M11
2023-08-12 00:00:00,SystemResetWarning,0831.6,5.00,000.00,028.6,026.7,000.0,037.0,030.4,28.0,0000.0,0010.77,0004.62,0003.89
2023-08-12 00:01:00,SystemResetWarning,0831.5,5.00,000.00,028.7,027.0,000.0,037.0,030.4,27.9,0000.0,0010.04,0004.64,0003.92
2023-08-12 00:02:00,SystemResetWarning,0831.6,5.01,000.00,028.7,027.3,000.0,037.0,030.5,27.3,0000.0,0010.07,0004.66,0003.95
2023-08-12 00:03:00,SystemResetWarning,0831.5,5.00,000.00,028.8,027.5,000.0,037.1,030.6,26.3,0000.0,0010.19,0004.70,0003.98
2023-08-12 00:04:00,SystemResetWarning,0831.5,4.98,000.00,028.8,026.6,000.0,037.0,030.4,26.4,0000.0,0010.15,0004.75,0004.01
2023-08-12 00:05:00,SystemResetWarning,0831.4,5.00,000.00,028.7,024.9,000.0,036.9,030.0,26.6,0000.0,0010.10,0004.73,0004.01
2023-08-12 00:06:00,SystemResetWarning,0831.4,5.00,000.00,028.6,024.4,000.0,036.8,029.9,26.8,0000.0,0009.94,0004.69,0004.01
2023-08-12 00:07:00,SystemResetWarning,0831.4,5.01,000.00,028.6,024.7,000.0,036.8,029.8,27.5,0000.0,0008.99,0004.67,0003.96
2023-08-12 00:08:00,SystemResetWarning,0831.4,4.99,000.00,028.5,025.1,000.0,036.8,029.9,28.5,0000.0,0008.91,0004.64,0003.93
2023-08-12 00:09:00,SystemResetWarning,0831.3,5.00,000.00,028.5,025.6,000.0,036.9,030.0,27.8,0000.0,0008.82,0004.60,0003.91
2023-08-12 00:10:00,SystemResetWarning,0831.3,5.00,000.00,028.5,026.0,000.0,036.9,030.1,27.1,0000.0,0008.20,0004.56,0003.89
2023-08-12 00:11:00,SystemResetWarning,0831.3,4.99,000.00,028.6,026.4,000.0,036.9,030.3,27.4,0000.0,0008.01,0004.49,0003.84
2023-08-12 00:12:00,SystemResetWarning,0831.3,5.01,000.00,028.6,026.8,000.0,037.0,030.4,27.8,0000.0,0007.83,0004.38,0003.76
2023-08-12 00:13:00,SystemResetWarning,0831.3,5.00,000.00,028.7,027.1,000.0,037.0,030.5,27.0,0000.0,0007.73,0004.29,0003.66
2023-08-12 00:14:00,SystemResetWarning,0831.3,4.99,000.00,028.7,027.4,000.0,037.0,030.5,26.5,0000.0,0007.48,0004.16,0003.56
2023-08-12 00:15:00,SystemResetWarning,0831.3,5.00,000.00,028.8,027.6,000.0,037.1,030.6,25.9,0000.0,0007.28,0004.03,0003.49
2023-08-12 00:16:00,SystemResetWarning,0831.3,5.00,000.00,028.8,027.8,000.0,037.1,030.7,25.4,0000.0,0007.25,0004.00,0003.45
2023-08-12 00:17:00,SystemResetWarning,0831.3,4.99,000.00,028.9,027.3,000.0,037.1,030.6,26.7,0000.0,0007.33,0003.99,0003.43
2023-08-12 00:18:00,SystemResetWarning,0831.3,4.99,000.00,028.8,025.8,000.0,037.0,030.3,25.5,0000.0,0007.34,0004.00,0003.45
2023-08-12 00:19:00,SystemResetWarning,0831.3,5.01,000.00,028.8,025.5,000.0,036.9,030.2,26.7,0000.0,0007.33,0004.03,0003.48
2023-08-12 00:20:00,SystemResetWarning,0831.3,5.00,000.00,028.7,025.7,000.0,036.9,030.1,26.3,0000.0,0007.40,0004.05,0003.48
2023-08-12 00:21:00,SystemResetWarning,0831.3,5.00,000.00,028.7,026.1,000.0,037.0,030.2,26.9,0000.0,0007.36,0004.04,0003.47
2023-08-12 00:22:00,SystemResetWarning,0831.3,5.01,000.00,028.7,026.4,000.0,037.0,030.4,26.1,0000.0,0007.35,0004.03,0003.47
2023-08-12 00:23:00,SystemResetWarning,0831.3,4.99,000.00,028.8,026.8,000.0,037.1,030.5,26.3,0000.0,0007.65,0004.12,0003.52
2023-08-12 00:24:00,SystemResetWarning,0831.3,4.99,000.00,028.8,027.1,000.0,037.1,030.6,26.4,0000.0,0007.75,0004.18,0003.57
2023-08-12 00:25:00,SystemResetWarning,0831.3,5.01,000.00,028.9,027.4,000.0,037.2,030.7,25.4,0000.0,0007.88,0004.24,0003.61
2023-08-12 00:26:00,SystemResetWarning,0831.4,5.01,000.00,028.9,027.6,000.0,037.2,030.7,25.9,0000.0,0007.71,0004.23,0003.62
2023-08-12 00:27:00,SystemResetWarning,0831.3,4.98,000.00,029.0,027.4,000.0,037.2,030.7,26.1,0000.0,0007.55,0004.20,0003.62
2023-08-12 00:28:00,SystemResetWarning,0831.3,5.00,000.00,028.9,025.8,000.0,037.1,030.4,25.9,0000.0,0007.41,0004.16,0003.59
2023-08-12 00:29:00,SystemResetWarning,0831.3,5.00,000.00,028.8,024.6,000.0,037.0,030.1,25.8,0000.0,0007.18,0004.05,0003.54
2023-08-12 00:30:00,SystemResetWarning,0831.3,5.01,000.00,028.7,024.7,000.0,036.9,029.9,26.9,0000.0,0006.90,0003.96,0003.49
2023-08-12 00:31:00,SystemResetWarning,0831.4,5.01,000.00,028.7,025.0,000.0,037.0,029.9,27.7,0000.0,0007.38,0003.89,0003.45
2023-08-12 00:32:00,SystemResetWarning,0831.3,4.99,000.00,028.6,025.5,000.0,037.0,030.1,27.8,0000.0,0007.48,0003.87,0003.42
2023-08-12 00:33:00,SystemResetWarning,0831.3,5.00,000.00,028.6,026.0,000.0,037.0,030.2,28.1,0000.0,0007.46,0003.85,0003.40
2023-08-12 00:34:00,SystemResetWarning,0831.3,5.01,000.00,028.7,026.4,000.0,037.1,030.3,29.6,0000.0,0007.11,0003.77,0003.37
2023-08-12 00:35:00,SystemResetWarning,0831.4,4.99,000.00,028.7,026.7,000.0,037.1,030.4,29.2,0000.0,0006.82,0003.72,0003.35
2023-08-12 00:36:00,SystemResetWarning,0831.4,4.99,000.00,028.8,027.1,000.0,037.1,030.5,29.9,0000.0,0006.52,0003.66,0003.33
2023-08-12 00:37:00,SystemResetWarning,0831.5,4.99,000.00,028.8,027.3,000.0,037.2,030.6,30.0,0000.0,0006.44,0003.67,0003.31
2023-08-12 00:38:00,SystemResetWarning,0831.5,5.00,000.00,028.9,027.6,000.0,037.2,030.7,29.9,0000.0,0006.35,0003.64,0003.29
2023-08-12 00:39:00,SystemResetWarning,0831.4,5.00,000.00,028.9,027.6,000.0,037.2,030.7,30.7,0000.0,0006.42,0003.63,0003.27
2023-08-12 00:40:00,SystemResetWarning,0831.4,4.99,000.00,028.9,026.3,000.0,037.1,030.4,30.6,0000.0,0007.45,0003.66,0003.27
2023-08-12 00:41:00,SystemResetWarning,0831.4,5.00,000.00,028.8,024.7,000.0,037.0,030.1,30.7,0000.0,0007.54,0003.69,0003.26
2023-08-12 00:42:00,SystemResetWarning,0831.4,5.01,000.00,028.7,024.6,000.0,036.9,030.0,31.0,0000.0,0007.12,0003.69,0003.26
2023-08-12 00:43:00,SystemResetWarning,0831.4,5.01,000.00,028.6,024.9,000.0,037.0,029.9,31.4,0000.0,0007.07,0003.72,0003.26
2023-08-12 00:44:00,SystemResetWarning,0831.3,5.00,000.00,028.6,025.3,000.0,037.0,030.0,31.0,0000.0,0007.29,0003.68,0003.26
2023-08-12 00:45:00,SystemResetWarning,0831.4,5.00,000.00,028.6,025.8,000.0,037.0,030.1,31.0,0000.0,0007.23,0003.66,0003.25
2023-08-12 00:46:00,SystemResetWarning,0831.4,5.00,000.00,028.6,026.2,000.0,037.1,030.3,31.2,0000.0,0007.22,0003.65,0003.24
2023-08-12 00:47:00,SystemResetWarning,0831.4,5.00,000.00,028.7,026.6,000.0,037.1,030.4,30.4,0000.0,0007.23,0003.64,0003.22
2023-08-12 00:48:00,SystemResetWarning,0831.4,5.00,000.00,028.7,026.9,000.0,037.1,030.5,30.1,0000.0,0007.16,0003.61,0003.21
2023-08-12 00:49:00,SystemResetWarning,0831.4,4.98,000.00,028.8,027.2,000.0,037.1,030.5,30.1,0000.0,0007.20,0003.60,0003.19
2023-08-12 00:50:00,SystemResetWarning,0831.5,5.00,000.00,028.8,027.5,000.0,037.2,030.6,30.1,0000.0,0007.02,0003.57,0003.19
2023-08-12 00:51:00,SystemResetWarning,0831.5,5.00,000.00,028.9,027.7,000.0,037.2,030.7,29.8,0000.0,0006.03,0003.52,0003.18
2023-08-12 00:52:00,SystemResetWarning,0831.5,5.00,000.00,028.9,027.8,000.0,037.2,030.8,29.8,0000.0,0005.90,0003.52,0003.18
2023-08-12 00:53:00,SystemResetWarning,0831.5,5.00,000.00,029.0,027.7,000.0,037.2,030.8,29.5,0000.0,0005.91,0003.53,0003.18
2023-08-12 00:54:00,SystemResetWarning,0831.5,5.00,000.00,029.0,026.2,000.0,037.1,030.6,29.2,0000.0,0005.69,0003.50,0003.18
2023-08-12 00:55:00,SystemResetWarning,0831.5,5.00,000.00,028.9,025.5,000.0,037.0,030.4,29.3,0000.0,0005.45,0003.52,0003.17
2023-08-12 00:56:00,SystemResetWarning,0831.5,5.01,000.00,028.8,025.6,000.0,037.1,030.2,29.9,0000.0,0005.69,0003.56,0003.18
2023-08-12 00:57:00,SystemResetWarning,0831.6,5.01,000.00,028.8,026.0,000.0,037.1,030.3,30.2,0000.0,0006.02,0003.64,0003.19
2023-08-12 00:58:00,SystemResetWarning,0831.5,5.00,000.00,028.8,026.3,000.0,037.2,030.4,30.3,0000.0,0006.29,0003.70,0003.21
2023-08-12 00:59:00,SystemResetWarning,0831.6,5.00,000.00,028.8,026.7,000.0,037.2,030.5,30.0,0000.0,0006.48,0003.76,0003.24
